EW0271 Weather Reports


time (UTC)temp
F
wind
direction
speed
knots
gust
knots
rain 1hr
in
rain 24hr
in
rain mn
in
humidity
%
barometer
mb
20260507104503 41 187 2.6 5.2 0.00 0.13 0.05 79 1016.4
20260507103008 41 92 3.5 12.2 0.00 0.13 0.05 78 1016.4
20260507101508 41 212 4.3 7.8 0.00 0.13 0.05 77 1016.3
20260507100002 40 208 3.5 10.4 0.00 0.13 0.05 80 1016.2
20260507094501 40 215 1.7 6.1 0.01 0.13 0.05 81 1016.3
20260507093059 40 215 2.6 8.7 0.03 0.13 0.05 81 1016.2
20260507091604 40 167 4.3 7.8 0.04 0.13 0.05 83 1016.1
20260507090111 41 155 3.5 10.4 0.04 0.13 0.05 86 1015.8
20260507084553 41 221 3.5 10.4 0.04 0.12 0.04 85 1015.6
20260507083059 41 172 4.3 8.7 0.03 0.11 0.03 86 1015.8
20260507081555 41 141 7.8 13.0 0.01 0.09 0.01 86 1015.7
20260507080045 41 127 8.7 13.9 0.02 0.09 0.01 86 1015.6
20260507074544 41 149 8.7 14.8 0.02 0.08 0.00 86 1015.4
20260507073057 41 141 7.0 13.0 0.03 0.08 0.08 86 1015.4
20260507071543 41 155 7.0 12.2 0.05 0.08 0.08 87 1015.2
20260507070110 41 155 6.1 8.7 0.04 0.07 0.07 87 1015.1
20260507064546 41 139 3.5 8.7 0.03 0.06 0.06 87 1015.0
20260507063041 41 167 2.6 8.7 0.02 0.05 0.05 87 1015.1
20260507061539 42 143 4.3 11.3 0.00 0.03 0.03 86 1014.8
20260507060036 42 146 7.0 10.4 0.00 0.03 0.03 85 1014.5
20260507054535 43 132 6.1 8.7 0.00 0.03 0.03 85 1014.3
20260507053036 43 147 6.1 9.6 0.00 0.03 0.03 84 1014.2
20260507051533 43 134 6.1 8.7 0.00 0.03 0.03 84 1014.1
20260507050034 42 132 6.1 11.3 0.00 0.03 0.03 85 1014.0
20260507044542 42 132 5.2 8.7 0.01 0.03 0.03 86 1013.9
20260507043041 42 159 9.6 13.9 0.02 0.03 0.03 85 1013.7
20260507041535 43 155 10.4 16.5 0.02 0.03 0.03 85 1013.6
20260507040033 43 141 4.3 12.2 0.02 0.03 0.03 85 1013.9
20260507034533 43 180 5.2 9.6 0.02 0.03 0.03 85 1013.9
20260507033029 42 240 0.9 3.5 0.00 0.01 0.01 88 1013.6
20260507031526 44 250 0.9 4.3 0.00 0.01 0.01 84 1013.5
20260507030025 44 212 0.0 3.5 0.01 0.01 0.01 82 1013.2
20260507024528 44 285 0.0 2.6 0.01 0.01 0.01 86 1013.1
20260507023019 44 297 0.9 3.5 0.01 0.01 0.01 85 1013.1
20260507021519 45 230 0.0 5.2 0.01 0.01 0.01 83 1013.0
20260507020018 44 157 2.6 6.1 0.01 0.01 0.01 84 1013.0
20260507014517 42 236 0.0 4.3 0.00 0.00 0.00 89 1013.0
20260507013014 41 276 0.0 3.5 0.00 0.00 0.00 89 1013.1
20260507011514 41 259 0.0 3.5 0.00 0.00 0.00 89 1013.0
20260507010014 41 291 0.0 3.5 0.00 0.00 0.00 89 1013.1
20260507004512 42 294 0.0 4.3 0.00 0.00 0.00 88 1013.0
20260507003013 43 295 0.9 2.6 0.00 0.00 0.00 87 1013.0
20260507001515 42 277 0.9 4.3 0.00 0.00 0.00 88 1012.8
20260507000011 42 274 0.0 2.6 0.00 0.00 0.00 88 1012.8
20260506234511 42 279 0.9 4.3 0.00 0.00 0.00 87 1012.7
20260506233013 43 279 0.0 3.5 0.00 0.00 0.00 87 1012.7
20260506231513 43 253 0.9 3.5 0.00 0.00 0.00 87 1012.6
20260506230009 43 253 1.7 5.2 0.00 0.00 0.00 86 1012.5
20260506224509 44 302 2.6 4.3 0.00 0.00 0.00 85 1012.4
20260506223002 44 267 0.9 5.2 0.00 0.00 0.00 83 1012.3
20260506221500 45 359 1.7 8.7 0.00 0.00 0.00 81 1012.2
20260506220100 44 312 0.9 5.2 0.00 0.00 0.00 81 1012.2
20260506214559 46 284 0.9 5.2 0.00 0.00 0.00 77 1012.1
20260506213101 44 257 1.7 7.0 0.00 0.00 0.00 81 1011.9
20260506211559 44 257 2.6 8.7 0.00 0.00 0.00 78 1011.8
20260506210058 47 158 3.5 8.7 0.00 0.00 0.00 69 1011.8
20260506204559 45 281 2.6 8.7 0.00 0.00 0.00 75 1011.6
20260506203059 47 249 3.5 9.6 0.00 0.00 0.00 73 1011.4
20260506201617 47 252 2.6 5.2 0.00 0.00 0.00 71 1011.3
20260506200052 46 273 0.9 2.6 0.00 0.00 0.00 74 1011.2
20260506194554 46 267 0.0 2.6 0.00 0.00 0.00 77 1011.2
20260506193052 45 284 0.0 3.5 0.00 0.00 0.00 80 1011.1
20260506191547 44 274 0.0 1.7 0.00 0.00 0.00 81 1011.2
20260506190046 43 255 0.0 2.6 0.00 0.00 0.00 82 1011.1
20260506184550 43 291 0.0 2.6 0.00 0.00 0.00 84 1011.1
20260506183041 42 295 0.9 3.5 0.00 0.00 0.00 84 1011.0
20260506181540 42 352 1.7 3.5 0.00 0.00 0.00 85 1010.9
20260506180040 42 316 0.0 1.7 0.00 0.00 0.00 85 1010.8
20260506174539 41 308 0.0 2.6 0.00 0.00 0.00 85 1010.7
20260506173053 42 322 0.0 1.7 0.00 0.00 0.00 85 1010.7
20260506171550 41 316 0.9 2.6 0.00 0.00 0.00 85 1010.5
20260506170038 41 348 0.9 2.6 0.00 0.00 0.00 85 1010.5
20260506164536 41 356 0.9 2.6 0.00 0.00 0.00 84 1010.4
20260506163041 40 309 0.0 0.9 0.00 0.00 0.00 86 1010.2
20260506161533 41 334 0.0 1.7 0.00 0.00 0.00 83 1010.1
20260506160032 41 257 0.0 0.9 0.00 0.00 0.00 84 1010.1
20260506154536 41 277 0.0 2.6 0.00 0.00 0.00 82 1009.9
20260506153028 41 20 0.0 4.3 0.00 0.00 0.00 82 1009.8
20260506151527 40 17 0.9 4.3 0.00 0.00 0.00 82 1009.8
20260506150026 40 25 0.0 3.5 0.00 0.00 0.00 81 1009.8
20260506144524 41 356 0.9 2.6 0.00 0.00 0.00 82 1009.7
20260506143024 41 348 0.0 0.9 0.00 0.00 0.00 81 1009.7
20260506141522 41 125 0.0 1.7 0.00 0.00 0.00 81 1009.7
20260506140023 41 155 0.0 3.5 0.00 0.00 0.00 81 1009.6
20260506134520 42 153 2.6 6.1 0.00 0.00 0.00 80 1009.6
20260506133018 42 169 3.5 7.0 0.00 0.00 0.00 78 1009.5
20260506131519 42 174 4.3 6.1 0.00 0.00 0.00 78 1009.5
20260506130016 42 146 5.2 7.8 0.00 0.00 0.00 78 1009.4
20260506124514 42 145 2.6 6.1 0.00 0.00 0.00 78 1009.4
20260506123015 42 146 3.5 7.8 0.00 0.00 0.00 78 1009.3
20260506121514 42 195 1.7 5.2 0.00 0.00 0.00 77 1009.2
20260506120013 42 142 3.5 9.6 0.00 0.00 0.00 77 1009.1
20260506114513 42 143 3.5 7.0 0.00 0.00 0.00 77 1009.1
20260506113004 42 184 4.3 11.3 0.00 0.00 0.00 75 1009.0
20260506111501 42 148 2.6 7.0 0.00 0.00 0.00 74 1009.0
20260506110100 42 200 2.6 8.7 0.00 0.00 0.00 74 1008.9
20260506110003 42 187 3.5 8.7 0.00 0.00 0.00 73 1008.9